• In Hungary
  • List of Countries
  • For 7 days
  • Water Temperature
  • Satellite Maps
  • Weather Map
  • News
  • Weather Widgets
  • user-avatar
    Login

    Hourly Weather Miami

    Today, 21 October, Saturday

    Time Temperature Precipitation Wind Pressure Humidity
    00:00 +28°C° 0.2 mm 8 mps 762 mmHg 77%
    01:00 +28°C° 0.2 mm 8 mps 761 mmHg 77%
    02:00 +28°C° 0.4 mm 8 mps 761 mmHg 78%
    03:00 +28°C° 0.4 mm 8 mps 761 mmHg 78%
    04:00 +28°C° 0.4 mm 8 mps 761 mmHg 79%
    05:00 +28°C° 0.4 mm 9 mps 761 mmHg 78%
    06:00 +28°C° 0.4 mm 9 mps 762 mmHg 78%
    07:00 +28°C° 0.4 mm 9 mps 762 mmHg 78%
    08:00 +29°C° 0.3 mm 9 mps 762 mmHg 75%
    09:00 +29°C° 0.3 mm 9 mps 763 mmHg 72%
    10:00 +31°C° 0.3 mm 9 mps 763 mmHg 69%
    11:00 +32°C° 0.5 mm 9 mps 763 mmHg 67%
    12:00 +32°C° 0.5 mm 9 mps 763 mmHg 65%
    13:00 +33°C° 0.5 mm 9 mps 762 mmHg 63%
    14:00 +32°C° 0.7 mm 9 mps 762 mmHg 65%
    15:00 +32°C° 0.7 mm 9 mps 762 mmHg 66%
    16:00 +32°C° 0.7 mm 8 mps 761 mmHg 68%
    17:00 +31°C° 0.7 mm 8 mps 762 mmHg 71%
    18:00 +29°C° 0.7 mm 8 mps 762 mmHg 74%
    19:00 +28°C° 0.7 mm 7 mps 762 mmHg 77%
    20:00 +28°C° 0.6 mm 7 mps 763 mmHg 77%
    21:00 +28°C° 0.6 mm 7 mps 763 mmHg 77%
    22:00 +28°C° 0.6 mm 7 mps 763 mmHg 78%
    23:00 +28°C° 0.2 mm 7 mps 763 mmHg 78%

    Tomorrow, 22 October, Sunday

    Time Temperature Precipitation Wind Pressure Humidity
    00:00 +28°C° 0.2 mm 7 mps 763 mmHg 79%
    01:00 +28°C° 0.2 mm 7 mps 763 mmHg 80%
    02:00 +28°C° 0.2 mm 7 mps 762 mmHg 79%
    03:00 +28°C° 0.2 mm 7 mps 762 mmHg 79%
    04:00 +28°C° 0.2 mm 6 mps 762 mmHg 79%
    05:00 +28°C° 0.1 mm 7 mps 762 mmHg 78%
    06:00 +28°C° 0.1 mm 7 mps 763 mmHg 78%
    07:00 +28°C° 0.1 mm 7 mps 763 mmHg 77%
    08:00 +29°C° 0 mm 7 mps 763 mmHg 73%
    09:00 +30°C° 0 mm 7 mps 764 mmHg 68%
    10:00 +32°C° 0 mm 8 mps 764 mmHg 64%
    11:00 +33°C° 0 mm 7 mps 764 mmHg 61%
    12:00 +33°C° 0 mm 7 mps 764 mmHg 59%
    13:00 +34°C° 0 mm 7 mps 763 mmHg 57%
    14:00 +34°C° 0 mm 7 mps 763 mmHg 57%
    15:00 +33°C° 0 mm 6 mps 763 mmHg 58%
    16:00 +33°C° 0 mm 6 mps 762 mmHg 58%
    17:00 +32°C° 0 mm 6 mps 762 mmHg 62%
    18:00 +30°C° 0 mm 6 mps 763 mmHg 66%
    19:00 +29°C° 0 mm 6 mps 763 mmHg 70%
    20:00 +29°C° 0 mm 6 mps 763 mmHg 71%
    21:00 +29°C° 0 mm 6 mps 763 mmHg 72%
    22:00 +29°C° 0 mm 6 mps 764 mmHg 73%
    23:00 +29°C° 0 mm 6 mps 763 mmHg 74%

    Day after tomorrow, 23 October, Monday

    Time Temperature Precipitation Wind Pressure Humidity
    00:00 +29°C° 0 mm 6 mps 763 mmHg 75%
    01:00 +29°C° 0 mm 6 mps 763 mmHg 77%
    02:00 +28°C° 0.1 mm 6 mps 763 mmHg 77%
    03:00 +28°C° 0.1 mm 6 mps 762 mmHg 77%
    04:00 +28°C° 0.1 mm 6 mps 762 mmHg 77%
    05:00 +28°C° 0 mm 6 mps 762 mmHg 77%
    06:00 +28°C° 0 mm 6 mps 762 mmHg 77%
    07:00 +28°C° 0 mm 6 mps 762 mmHg 77%
    08:00 +29°C° 0.1 mm 7 mps 762 mmHg 72%
    09:00 +32°C° 0.1 mm 7 mps 763 mmHg 67%
    10:00 +33°C° 0.1 mm 7 mps 763 mmHg 62%
    11:00 +33°C° 0.1 mm 7 mps 762 mmHg 61%
    12:00 +34°C° 0.1 mm 7 mps 762 mmHg 59%
    13:00 +34°C° 0.1 mm 7 mps 761 mmHg 58%
    14:00 +33°C° 0 mm 7 mps 760 mmHg 59%
    15:00 +33°C° 0 mm 6 mps 760 mmHg 61%
    16:00 +33°C° 0 mm 6 mps 760 mmHg 62%
    17:00 +32°C° 0 mm 6 mps 760 mmHg 65%
    18:00 +30°C° 0 mm 5 mps 760 mmHg 68%
    19:00 +29°C° 0 mm 5 mps 760 mmHg 71%
    20:00 +29°C° 0.1 mm 5 mps 760 mmHg 71%
    21:00 +29°C° 0.1 mm 4 mps 760 mmHg 72%
    22:00 +29°C° 0.1 mm 4 mps 761 mmHg 73%
    23:00 +29°C° 0.2 mm 4 mps 760 mmHg 73%

    24 October, Tuesday

    Time Temperature Precipitation Wind Pressure Humidity
    00:00 +29°C° 0.2 mm 4 mps 760 mmHg 74%
    01:00 +28°C° 0.2 mm 4 mps 760 mmHg 75%
    02:00 +28°C° 0.8 mm 4 mps 759 mmHg 77%
    03:00 +28°C° 0.8 mm 4 mps 759 mmHg 79%
    04:00 +28°C° 0.8 mm 4 mps 758 mmHg 80%
    05:00 +28°C° 0.1 mm 4 mps 758 mmHg 80%
    06:00 +28°C° 0.1 mm 5 mps 758 mmHg 80%
    07:00 +28°C° 0.1 mm 5 mps 758 mmHg 80%
    08:00 +29°C° 1 mm 5 mps 758 mmHg 76%
    09:00 +29°C° 1 mm 5 mps 759 mmHg 72%
    10:00 +30°C° 1 mm 5 mps 759 mmHg 68%
    11:00 +32°C° 1 mm 6 mps 758 mmHg 64%
    12:00 +33°C° 1 mm 6 mps 757 mmHg 61%
    13:00 +33°C° 1 mm 6 mps 757 mmHg 58%
    14:00 +33°C° 0.4 mm 6 mps 757 mmHg 60%
    15:00 +33°C° 0.4 mm 6 mps 756 mmHg 61%
    16:00 +32°C° 0.4 mm 5 mps 756 mmHg 63%
    17:00 +30°C° 0.6 mm 5 mps 756 mmHg 67%
    18:00 +29°C° 0.6 mm 4 mps 757 mmHg 72%
    19:00 +28°C° 0.6 mm 4 mps 757 mmHg 76%
    20:00 +28°C° 0.1 mm 4 mps 757 mmHg 78%
    21:00 +27°C° 0.1 mm 4 mps 758 mmHg 79%
    22:00 +27°C° 0.1 mm 4 mps 758 mmHg 80%
    23:00 +26°C° 0.1 mm 5 mps 758 mmHg 78%

    25 October, Wednesday

    Time Temperature Precipitation Wind Pressure Humidity
    00:00 +25°C° 0.1 mm 5 mps 758 mmHg 76%
    01:00 +23°C° 0.1 mm 5 mps 757 mmHg 74%
    02:00 +23°C° 0 mm 5 mps 757 mmHg 74%
    03:00 +22°C° 0 mm 5 mps 757 mmHg 74%
    04:00 +22°C° 0 mm 5 mps 757 mmHg 74%
    05:00 +21°C° 0 mm 5 mps 757 mmHg 74%
    06:00 +21°C° 0 mm 5 mps 758 mmHg 73%
    07:00 +21°C° 0 mm 5 mps 758 mmHg 73%
    08:00 +22°C° 0 mm 5 mps 759 mmHg 65%
    09:00 +23°C° 0 mm 6 mps 759 mmHg 58%
    10:00 +24°C° 0 mm 6 mps 760 mmHg 51%
    11:00 +26°C° 0 mm 6 mps 759 mmHg 49%
    12:00 +26°C° 0 mm 7 mps 759 mmHg 47%
    13:00 +27°C° 0 mm 7 mps 759 mmHg 45%
    14:00 +26°C° 0 mm 7 mps 759 mmHg 44%
    15:00 +26°C° 0 mm 7 mps 758 mmHg 43%
    16:00 +26°C° 0 mm 6 mps 758 mmHg 42%
    17:00 +23°C° 0 mm 6 mps 759 mmHg 45%
    18:00 +22°C° 0 mm 6 mps 760 mmHg 47%
    19:00 +21°C° 0 mm 6 mps 760 mmHg 50%
    20:00 +21°C° 0 mm 6 mps 761 mmHg 52%
    21:00 +20°C° 0 mm 6 mps 761 mmHg 54%
    22:00 +20°C° 0 mm 6 mps 762 mmHg 56%
    23:00 +19°C° 0 mm 6 mps 761 mmHg 57%

    26 October, Thursday

    Time Temperature Precipitation Wind Pressure Humidity
    00:00 +19°C° 0 mm 6 mps 761 mmHg 57%
    01:00 +19°C° 0 mm 6 mps 761 mmHg 58%
    02:00 +17°C° 0 mm 6 mps 761 mmHg 57%
    03:00 +17°C° 0 mm 6 mps 761 mmHg 56%
    04:00 +16°C° 0 mm 6 mps 761 mmHg 55%
    05:00 +16°C° 0 mm 5 mps 761 mmHg 56%
    06:00 +16°C° 0 mm 5 mps 762 mmHg 57%
    07:00 +16°C° 0 mm 5 mps 762 mmHg 58%
    08:00 +19°C° 0 mm 5 mps 763 mmHg 52%
    09:00 +20°C° 0 mm 5 mps 763 mmHg 46%
    10:00 +22°C° 0 mm 5 mps 764 mmHg 40%
    11:00 +23°C° 0 mm 5 mps 763 mmHg 37%
    12:00 +25°C° 0 mm 5 mps 763 mmHg 34%
    13:00 +26°C° 0 mm 5 mps 762 mmHg 32%
    14:00 +26°C° 0 mm 5 mps 762 mmHg 33%
    15:00 +26°C° 0 mm 5 mps 762 mmHg 34%
    16:00 +26°C° 0 mm 5 mps 762 mmHg 36%
    17:00 +25°C° 0 mm 5 mps 762 mmHg 42%
    18:00 +23°C° 0 mm 5 mps 762 mmHg 48%
    19:00 +22°C° 0 mm 5 mps 763 mmHg 54%
    20:00 +22°C° 0 mm 5 mps 763 mmHg 56%
    21:00 +22°C° 0 mm 5 mps 763 mmHg 58%
    22:00 +22°C° 0 mm 5 mps 763 mmHg 60%
    23:00 +22°C° 0 mm 4 mps 763 mmHg 61%
    Show more